Showing default

TRAAC, 205

Orbit data source: Space-Track

TRAAC, 205 is a payload satellite owned by USN BuWeps (US) in LEO that was launched on Wed, 15 Nov 1961 UTC via a THOR ABLESTAR launch vehicle from the Air Force Eastern Test Range (AFETR). Payload-class satellites include a variety of spacecraft equipped with specific instruments for various scientific and technological missions. These include communications satellites like Starlink; space stations such as the ISS; scientific satellites like the Hubble; Earth observation satellites from companies like Planet Labs, Umbra, and HawkEye 360; GPS; miniature CubeSats for education and research; and military/defense satellites.

Loading next visibility...
Identifier
205, 1961-031B
Orbit
LEO
Country
Flag of USUS
Related business
Manufacturer
APL
Mission
Spacecraft
Bus & Motor
TRANSIT 4, Unknown motor
Mass
105 kg wet, 105 kg dry
Launch date (UTC)
1961-11-15 (64 years ago)
Launch vehicle
THOR ABLESTAR
Launch site
Air Force Eastern Test Range (AFETR)
Object type
Payload
Rocket body
Debris
Shape & HBR
Unknown
Radar Cross Section
Medium (>0.1 m² and <1 m²)

Expand to show TLE details & history
Last TLE update: 16 hours ago

TLE from 16 hours ago
0 TRAAC
1 00205U 61031B   25348.71137406  .00000066  00000-0  56052-4 0  9993
2 00205  32.4425   0.3250 0101979  14.2794 346.0677 13.62561746193897
Epoch: 2025-12-14T17:04Z
TLE epoch observation values (Epoch: 2025-12-14T17:04:22.718Z)
Latitude
-0.00003°
Longitude
20.60992°
Altitude
951.91 km
Speed
7.414 km/s
True Right ascension
00h 01m 17s
True Declination
0° 00' 00"
Sunlit
Object was in daylight at epoch
Visualization orbit readout
Latitude
Unknown
Longitude
Unknown
Altitude
Unknown
Speed
Unknown
Apparent Right ascension
Unknown
Apparent Declination
Unknown
Sunlit
N/A
Visualization observer readout
Local Sidereal Time
07:25:28
Azimuth
Unknown
Elevation
Unknown
Doppler factor
Unknown
Orbital elements
Apogee altitude
1,105.329 km
Perigee altitude
954.238 km
Semi-major axis
7,407.92 km
Eccentricity
0.0102
Inclination
32.4425°
RAAN
0.325°
Arg. of periapsis
14.2794°
True anomaly
345.78281°
Mean anomaly
346.0677°
Eccentric anomaly
345.92561°
Mean motion
3.40407 °/min
Orbital period
105.76 mins
BSTAR
0.000056052
Loading maneuver chart data...
Computing Atmospheric mass density...
Loading historical data...
Loading historical data...
Loading historical data...
Loading historical data...
Loading historical data...
Loading historical data...
Loading historical data...
Other satellites on launch #31 in the year 1961 (1961-11-15 UTC)

Documentation

Showing up to 5 results
|